Regional Weather Roundup
Issued by NWS Jackson, KY

Home | Current Version | Previous Version | Graphics & Text | Print | Product List | Glossary On
Versions: 1 2 3 4 5 6 7 8 9 10 11 12 13 14 15 16 17 18 19 20 21 22 23 24 25 26 27 28 29 30 31 32 33 34 35 36 37 38 39 40 41 42 43 44 45 46 47 48 49 50
380
ASUS43 KJKL 211810
RWRJKL

EAST KENTUCKY HOURLY WEATHER ROUNDUP
NATIONAL WEATHER SERVICE JACKSON KY
100 PM EST TUE FEB 21 2017

NOTE: "FAIR" INDICATES FEW OR NO CLOUDS BELOW 12,000 FEET WITH
NO SIGNIFICANT WEATHER AND/OR OBSTRUCTIONS TO VISIBILITY.

* THESE REPORTS ARE NOT UNDER NWS QUALITY CONTROL AND MAY NOT
  REPORT WEATHER SUCH AS PRECIPITATION AND FOG.

KYZ079-080-083-085-087-088-110-112-115-119-120-211900
...EASTERN KENTUCKY...

CITY           SKY/WX    TMP DP  RH WIND       PRES   REMARKS
JACKSON        SUNNY     74  40  29 VRB7      30.05F
6HR MIN TEMP:  54; 6HR MAX TEMP:  74;

LONDON         PTSUNNY   68  40  35 S7        30.05F
6HR MIN TEMP:  53; 6HR MAX TEMP:  68;

SOMERSET*      CLOUDY    70  45  40 S8        30.03F
MONTICELLO*    MOSUNNY   70  49  47 VRB7      30.03F
6HR MIN TEMP:  56; 6HR MAX TEMP:  72;

WILLIAMSBURG*  MOCLDY    68  45  42 S10       30.04F
MIDDLESBORO*   PTSUNNY   68  42  38 S3        30.07F
6HR MIN TEMP:  39; 6HR MAX TEMP:  69;

HARLAN APT*    CLEAR     68  36  30 SE5       30.07F
PIKE CO APT*     N/A     69  38  32 S5        30.06F
BIG SANDY APT* CLEAR     71  38  29 SW3       30.05F
6HR MIN TEMP:  57; 6HR MAX TEMP:  71;

MOREHEAD APT*  MOCLDY    70  43  37 SW14      30.05F
ASHLAND*       MOSUNNY   64  45  48 CALM      30.01F
$$

KYZ035-036-041-042-044-050-067-078-099-211900
...CENTRAL KENTUCKY...

CITY           SKY/WX    TMP DP  RH WIND       PRES   REMARKS
MT STERLING*   PTSUNNY   70  46  43 SW13G20   30.04F
FLEMING/MASON* PTSUNNY   69  47  44 CALM      30.03F
DANVILLE*      MOSUNNY   68  45  42 S8        30.03F
LEXINGTON      CLOUDY    72  45  37 S13       30.01F
6HR MIN TEMP:  55; 6HR MAX TEMP:  72;

FRANKFORT      CLOUDY    71  47  42 S10       29.99F
6HR MIN TEMP:  50; 6HR MAX TEMP:  73;

LOUISVILLE     CLOUDY    71  47  42 S5        29.97F
6HR MIN TEMP:  52; 6HR MAX TEMP:  71;

LEBANON*       MOCLDY    68  48  49 S8        30.00F
GLASGOW*       LGT RAIN  69  49  48 S8G16     29.98F
BOWLING GREEN  CLOUDY    69  51  52 MISG      29.96F
6HR MIN TEMP:  50; 6HR MAX TEMP:  70;

$$

KYZ091>093-OHZ055-061-077-WVZ005-015-034-035-042-211900
...SOUTHERN OHIO/WEST VIRGINIA...

CITY           SKY/WX    TMP DP  RH WIND       PRES   REMARKS
COVINGTON      CLOUDY    65  47  52 S8        30.00F
COLUMBUS       CLOUDY    65  45  48 SW6       30.01F
DAYTON         CLOUDY    61  45  55 SW9       30.00F
WILMINGTON     CLOUDY    65  48  54 SW7       30.00F
HUNTINGTON     MOSUNNY   72  38  29 S8        30.03F
CHARLESTON     CLOUDY    70  40  33 NW3       30.05F
PINEVILLE*     PTSUNNY   71  29  21 MISG      30.12F
BECKLEY        CLOUDY    59  38  45 SE8       30.10F
BLUEFIELD      CLOUDY    59  39  47 VRB6      30.12F
LOGAN CO APT*    N/A     70  37  30 CALM      30.07F
$$

VAZ002-007-008-TNZ017-027-036-066-071-211900
...SOUTHWEST VIRGINIA/EAST TENNESSEE...

CITY           SKY/WX    TMP DP  RH WIND       PRES   REMARKS
WISE*          SUNNY     64  34  32 CALM      30.11F
JONESVILLE*      N/A     70  39  32 S9        30.09F
ABINGDON*      MOSUNNY   67  39  36 S10       30.10F
BRISTOL        CLOUDY    68  42  38 S8        30.09F
MORRISTOWN*    CLEAR     70  39  32 CALM      30.05F
SEVIERVILLE*   CLEAR     70  39  32 CALM      30.04F
KNOXVILLE      CLOUDY    72  45  37 S13       30.04F
LAFOLLETTE*    PTCLDY    70  45  40 VRB6G13   30.08F
OAK RIDGE      MOSUNNY   71  44  37 VRB7      30.05F
CROSSVILLE     CLOUDY    64  47  53 S12G21    30.04F
NASHVILLE      CLOUDY    69  52  54 S22G30    29.96F
$$

...KEY TO REMARKS...
VSB - VISIBILITY IN MILES
WCI - WIND CHILL INDEX
HX  - HEAT INDEX

$$




USA.gov is the U.S. government's official web portal to all federal, state and local government web resources and services.